CAPE
39 45 45 47 36 36 33 33 13 9 25 37 19 22 20 42 34 29 0 0 1 6 0 0 0 0 0 0 0 0 0 0 0 37 45 10 0 0 41 9 0 7 154 93 96 34 49 1 78 64 18 0 0 0
19 58 49 64 45 18 32 26 24 15 12 26 22 36 41 25 12 18 0 1 3 3 0 0 0 0 0 0 0 0 0 0 0 0 0 0 109 5 5 7 22 23 97 33 0 3 0 0 0 0 0 0 0 0
22 28 15 11 12 25 23 13 13 9 12 18 10 26 10 24 28 11 0 0 0 2 0 0 0 0 0 0 0 0 0 0 0 0 0 0 2 0 59 150 44 11 57 0 0 0 0 0 0 0 0 0 0 0
21 30 18 6 5 15 18 18 6 10 8 6 31 46 32 32 24 17 1 0 0 0 0 0 0 0 0 0 0 0 0 0 0 0 0 0 0 0 0 15 51 26 73 6 0 0 0 0 0 0 0 0 0 0
8 20 23 0 6 18 16 12 7 7 8 11 15 29 28 25 16 2 0 0 0 0 0 0 0 0 0 0 0 0 0 0 0 0 0 0 0 0 0 0 76 4 382 66 0 0 0 0 0 0 0 0 0 0
2 2 16 0 4 12 11 9 3 7 15 19 42 38 30 12 5 0 14 3 0 1 1 0 0 0 0 0 0 0 0 0 0 0 0 0 0 0 0 0 0 0 5 1 0 0 0 0 0 0 0 0 0 0
11 17 6 0 7 9 10 7 4 2 14 32 34 22 3 0 0 0 2 0 0 0 0 0 0 0 0 0 0 0 0 0 0 0 0 0 0 0 0 0 0 0 0 0 0 0 0 0 0 0 0 0 0 0
11 22 1 2 3 4 7 9 4 0 5 9 21 5 1 0 0 0 0 0 0 0 0 0 0 0 0 0 0 0 0 0 0 0 0 0 0 0 0 0 0 0 0 0 0 0 0 0 0 0 0 0 0 0
8 18 8 4 0 4 1 1 1 1 0 6 3 0 0 0 0 6 24 1 0 0 0 0 0 1 0 0 0 0 0 0 0 0 1 0 0 0 0 0 0 0 0 0 0 0 0 0 0 0 0 0 0 0
7 3 2 0 1 3 4 4 6 4 0 0 0 2 0 3 25 1 0 0 0 0 0 0 0 0 0 0 0 0 0 0 3 0 17 3 7 0 0 0 0 0 0 0 0 0 0 0 0 0 0 0 0 0
9 3 1 8 3 1 4 3 2 4 0 0 1 0 0 0 0 1 1 0 0 0 0 0 0 0 0 3 4 0 0 0 3 5 31 37 18 0 0 0 0 0 0 0 0 0 0 0 0 0 0 0 0 0
15 10 13 14 8 10 4 0 4 2 3 1 0 0 0 0 0 0 0 0 0 0 0 0 0 0 0 0 21 0 7 1 1 1 43 13 2 0 0 0 0 0 0 0 0 0 0 0 0 0 0 0 0 0
12 16 12 10 7 4 1 0 7 0 0 0 0 0 0 0 0 0 0 0 2 7 0 0 0 0 0 0 9 10 9 8 0 54 82 5 1 0 0 0 0 0 0 0 0 0 0 0 0 0 0 0 0 0
10 13 9 7 0 0 0 0 0 0 1 0 1 0 0 0 0 0 5 10 9 0 3 8 9 1 0 13 9 27 1 2 39 33 27 5 0 0 0 0 0 0 0 0 0 0 0 0 0 0 0 0 0 0
12 13 9 7 0 0 0 0 0 0 0 0 0 0 0 0 0 0 1 2 5 0 8 29 23 10 3 9 9 7 22 30 54 73 67 31 0 0 0 0 0 0 0 0 0 0 0 0 0 0 0 0 0 0
3 2 2 0 0 0 0 0 0 0 0 0 0 0 0 0 3 0 0 0 0 0 0 0 0 1 0 0 1 14 20 6 6 16 18 0 0 0 0 0 0 0 0 0 0 0 0 0 0 0 0 0 0 0
0 0 0 0 0 0 0 0 0 0 0 0 0 0 0 0 0 0 0 0 0 0 0 0 0 0 0 0 2 0 2 5 6 1 0 0 0 0 0 0 0 0 0 0 0 0 0 0 0 0 0 0 0 0
0 0 0 0 0 0 0 0 0 0 0 0 0 0 0 0 0 0 0 0 0 0 0 0 0 0 0 6 5 1 3 0 0 0 0 0 0 0 0 0 0 0 0 0 0 0 0 0 0 0 0 0 0 4
0 0 0 0 0 0 0 0 0 0 0 0 0 0 0 0 0 0 0 0 0 0 0 0 0 0 3 3 0 0 0 0 0 0 0 0 0 0 0 0 0 0 0 0 0 0 0 0 0 0 0 0 0 0
0 0 0 0 0 0 0 0 0 0 0 0 0 1 0 0 0 0 0 0 0 0 0 0 0 0 0 0 0 0 0 0 0 0 0 0 0 0 0 1 3 0 0 0 0 0 0 0 0 0 0 0 0 0
0 0 0 0 0 0 0 0 0 0 0 0 0 0 0 0 0 0 0 0 0 0 0 0 0 0 0 0 0 0 0 0 0 0 0 0 2 7 12 14 9 0 0 2 0 0 0 0 0 0 0 0 0 0
0 0 0 0 0 0 0 0 0 0 0 0 0 0 0 0 0 0 0 0 0 0 0 0 0 0 0 0 0 0 0 2 13 2 2 4 20 22 11 0 0 0 0 0 0 0 0 0 0 0 0 0 0 0
0 0 0 0 0 0 0 0 0 0 0 0 0 0 0 0 0 0 0 0 0 0 0 0 0 0 0 0 7 12 13 19 18 12 13 24 15 0 0 0 0 0 0 0 0 0 0 0 0 0 0 0 0 0
0 0 0 1 1 0 0 0 0 0 0 0 0 0 0 1 0 0 0 0 0 0 3 11 20 10 4 7 12 10 16 14 10 0 0 4 0 0 0 0 0 0 0 0 0 0 0 0 0 0 0 0 0 0
0 0 0 0 0 0 0 2 2 0 1 1 0 0 0 0 0 0 0 0 3 1 1 7 12 9 5 7 2 0 0 0 0 0 0 0 0 0 0 0 0 0 0 0 0 0 0 0 0 0 0 0 0 0
0 0 0 0 0 0 0 0 0 0 0 0 0 0 0 0 2 3 0 1 0 0 0 0 1 0 0 1 0 0 0 0 0 0 0 0 0 0 0 0 0 0 0 0 0 0 0 0 0 0 0 0 0 0
1 6 0 0 0 0 0 0 0 0 0 0 0 0 0 1 14 3 0 0 3 17 0 0 0 0 0 0 0 0 0 0 0 0 0 0 0 0 0 0 0 0 0 0 0 0 0 0 0 0 0 0 0 0
0 0 7 1 0 0 2 0 0 0 1 1 0 0 0 0 1 0 0 0 0 0 0 0 0 0 0 0 0 0 0 0 0 0 0 0 0 0 0 0 0 0 0 0 0 0 0 0 0 0 0 0 0 0
6 25 1 8 9 4 0 0 0 0 0 0 0 0 0 1 6 0 0 0 0 0 0 0 0 0 0 0 0 0 0 0 0 0 0 0 0 0 0 0 0 0 0 0 0 0 0 0 0 0 0 0 0 0
11 9 49 23 12 13 0 0 0 0 0 0 0 0 0 0 0 0 0 0 0 0 0 0 0 0 0 0 0 0 0 0 0 0 0 0 0 0 0 0 0 0 0 0 0 0 0 0 0 0 0 0 0 0
0 0 16 5 0 4 1 10 0 0 0 0 0 0 0 0 0 0 0 0 0 0 0 0 0 0 0 0 0 0 0 0 0 0 0 0 0 0 0 0 0 0 0 0 0 0 0 0 0 0 0 0 0 0
0 0 0 1 0 5 17 27 9 1 0 0 4 5 11 10 0 0 0 0 0 0 0 0 0 0 0 0 0 0 0 0 0 0 0 0 0 0 0 0 0 0 0 0 0 0 0 0 0 0 0 0 0 0
6 0 4 38 52 59 46 2 27 20 5 10 8 1 30 0 0 23 15 0 0 0 0 0 0 0 0 0 0 0 0 0 0 0 0 0 0 0 0 0 0 0 0 0 0 0 0 0 0 0 0 0 0 0
CIN
-0 -0 -0 -0 -0 -0 -0 -1 -7 -9 -9 -6 -4 -3 -4 -2 -0 -2 -0 -0 -0 -0 -0 -0 -0 -0 -0 -0 -0 -0 -0 -0 -0 -94 -112 -105 -0 -0 -63 -45 -0 -205 -80 -135 -235 -182 -102 -288 -372 -128 -180 -0 -0 -0
-0 -0 -0 -0 -0 -0 -0 -0 -4 -7 -13 -8 -7 -10 -9 -2 -4 -2 -0 -12 -12 -0 -0 -0 -0 -0 -0 -0 -0 -0 -0 -0 -0 -0 -0 -0 -106 -156 -6 -121 -161 -82 -119 -57 -1 -397 -0 -0 -0 -0 -0 -0 -0 -0
-0 -1 -3 -3 -7 -5 -2 -4 -7 -6 -11 -9 -6 -8 -5 -2 -2 -2 -1 -0 -1 -16 -0 -0 -0 -0 -0 -0 -0 -0 -0 -0 -0 -0 -0 -0 -125 -0 -94 -81 -104 -162 -95 -0 -0 -0 -0 -0 -0 -0 -0 -0 -0 -0
-0 -0 -0 -6 -8 -5 -7 -3 -6 -7 -10 -12 -4 -3 -5 -0 -0 -1 -0 -0 -1 -4 -0 -0 -0 -0 -0 -0 -0 -0 -0 -0 -0 -0 -0 -0 -0 -0 -0 -85 -109 -200 -136 -68 -0 -0 -0 -0 -0 -0 -0 -0 -0 -0
-2 -0 -0 -0 -11 -13 -11 -8 -4 -6 -9 -8 -5 -2 -0 -0 -1 -1 -0 -0 -0 -1 -0 -0 -0 -0 -0 -0 -0 -0 -0 -0 -0 -0 -0 -0 -0 -0 -0 -0 -148 -87 -116 -165 -0 -0 -0 -0 -0 -0 -0 -0 -0 -0
-13 -6 -0 -0 -17 -9 -9 -8 -4 -6 -9 -10 -0 -2 -0 -4 -5 -0 -6 -62 -0 -6 -5 -0 -0 -0 -0 -0 -0 -0 -0 -0 -0 -0 -0 -0 -0 -0 -0 -0 -0 -0 -343 -11 -0 -0 -0 -0 -0 -0 -0 -0 -0 -0
-5 -7 -5 -0 -13 -10 -8 -9 -7 -6 -11 -5 -7 -3 -8 -4 -0 -0 -9 -0 -0 -0 -1 -0 -0 -0 -0 -0 -0 -0 -0 -0 -0 -0 -0 -0 -0 -0 -0 -0 -0 -0 -0 -0 -0 -0 -0 -0 -0 -0 -0 -0 -0 -0
-8 -5 -5 -10 -20 -10 -14 -11 -6 -6 -10 -24 -8 -13 -16 -8 -0 -0 -0 -0 -0 -0 -0 -0 -0 -0 -0 -0 -0 -0 -0 -0 -0 -0 -0 -0 -0 -0 -0 -0 -0 -0 -0 -0 -0 -0 -0 -0 -0 -0 -0 -0 -0 -0
-11 -11 -8 -20 -0 -9 -4 -14 -9 -7 -0 -21 -24 -1 -0 -0 -0 -21 -31 -6 -0 -0 -0 -0 -0 -16 -0 -0 -0 -0 -0 -0 -0 -0 -73 -0 -0 -0 -0 -0 -0 -0 -0 -0 -0 -0 -0 -0 -0 -0 -0 -0 -0 -0
-9 -15 -5 -0 -29 -31 -26 -12 -7 -5 -0 -4 -0 -4 -0 -38 -18 -3 -0 -0 -0 -0 -0 -0 -0 -0 -0 -0 -0 -0 -0 -39 -53 -0 -130 -41 -1 -0 -0 -0 -0 -0 -0 -0 -0 -0 -0 -0 -0 -0 -0 -0 -0 -0
-11 -18 -5 -14 -23 -23 -17 -12 -9 -9 -12 -0 -0 -5 -0 -0 -0 -18 -2 -2 -0 -0 -0 -0 -0 -0 -0 -121 -94 -5 -0 -0 -26 -22 -43 -19 -0 -0 -0 -0 -0 -0 -0 -0 -0 -0 -0 -0 -0 -0 -0 -0 -0 -0
-17 -21 -15 -16 -20 -24 -20 -8 -19 -16 -5 -1 -0 -0 -0 -0 -0 -0 -0 -0 -45 -2 -0 -0 -0 -0 -0 -0 -94 -0 -84 -22 -9 -10 -19 -9 -4 -0 -0 -0 -0 -0 -0 -0 -0 -0 -0 -0 -0 -0 -0 -0 -0 -0
-12 -20 -20 -22 -18 -11 -18 -3 -6 -0 -0 -0 -0 -0 -0 -0 -0 -0 -0 -0 -23 -62 -12 -71 -0 -0 -0 -0 -124 -90 -20 -36 -0 -60 -2 -8 -0 -0 -0 -0 -0 -0 -0 -0 -0 -0 -0 -0 -0 -0 -0 -0 -0 -0
-19 -15 -20 -20 -0 -0 -0 -0 -11 -3 -5 -1 -0 -0 -0 -0 -0 -0 -29 -28 -79 -0 -102 -62 -63 -71 -44 -88 -135 -45 -51 -23 -31 -40 -18 -2 -0 -1 -0 -0 -0 -0 -0 -0 -0 -0 -0 -0 -0 -0 -0 -0 -0 -0
-20 -18 -22 -11 -3 -0 -0 -0 -0 -0 -0 -0 -0 -0 -0 -0 -0 -0 -55 -99 -114 -0 -118 -66 -77 -89 -93 -80 -137 -119 -67 -29 -0 -0 -5 -25 -0 -0 -0 -0 -0 -0 -0 -0 -0 -0 -0 -0 -0 -0 -0 -0 -0 -0
-22 -17 -6 -0 -0 -0 -0 -0 -0 -0 -0 -0 -0 -0 -0 -0 -15 -3 -0 -0 -0 -0 -0 -0 -6 -63 -18 -0 -64 -47 -32 -17 -16 -41 -36 -0 -0 -0 -0 -0 -0 -0 -0 -0 -0 -0 -0 -0 -0 -0 -0 -0 -0 -0
-0 -0 -0 -0 -0 -0 -0 -0 -0 -0 -0 -0 -0 -0 -0 -0 -1 -0 -0 -0 -0 -0 -0 -0 -0 -0 -0 -0 -9 -0 -0 -4 -78 -34 -0 -0 -0 -0 -0 -0 -0 -0 -0 -0 -0 -0 -0 -0 -0 -0 -0 -0 -0 -0
-0 -0 -0 -0 -0 -0 -0 -0 -0 -0 -0 -0 -0 -0 -0 -0 -0 -0 -0 -0 -0 -0 -0 -0 -0 -0 -2 -2 -0 -14 -16 -0 -0 -0 -0 -0 -0 -0 -0 -0 -0 -0 -0 -0 -0 -0 -0 -0 -0 -0 -0 -0 -0 -67
-0 -0 -0 -0 -0 -0 -0 -0 -0 -9 -13 -0 -8 -0 -0 -0 -0 -0 -0 -0 -0 -0 -0 -0 -0 -0 -3 -6 -0 -0 -0 -0 -0 -0 -0 -0 -0 -0 -0 -0 -30 -0 -0 -0 -0 -0 -0 -0 -0 -0 -0 -0 -0 -0
-0 -0 -0 -0 -0 -0 -0 -0 -0 -0 -0 -0 -0 -26 -0 -0 -0 -0 -0 -0 -0 -0 -0 -0 -0 -0 -0 -0 -0 -0 -0 -0 -0 -0 -0 -0 -0 -10 -0 -66 -61 -0 -0 -0 -0 -0 -0 -0 -0 -0 -0 -0 -0 -0
-0 -0 -0 -0 -0 -0 -0 -0 -0 -0 -0 -0 -0 -0 -0 -0 -0 -0 -0 -0 -0 -0 -0 -0 -0 -0 -0 -0 -0 -0 -0 -0 -0 -0 -0 -0 -43 -95 -71 -69 -80 -1 -0 -49 -3 -33 -0 -0 -0 -0 -0 -0 -0 -0
-0 -0 -0 -0 -0 -0 -0 -0 -0 -0 -0 -0 -0 -0 -0 -0 -0 -0 -0 -0 -0 -0 -0 -0 -0 -0 -0 -0 -0 -0 -29 -86 -61 -55 -81 -97 -59 -49 -64 -0 -0 -0 -0 -0 -0 -0 -0 -0 -0 -0 -0 -0 -0 -0
-0 -0 -0 -0 -0 -0 -0 -0 -0 -0 -0 -0 -0 -0 -0 -0 -0 -0 -0 -0 -0 -0 -0 -0 -5 -0 -0 -20 -77 -86 -93 -72 -53 -55 -48 -37 -73 -0 -0 -0 -0 -0 -0 -0 -0 -0 -0 -0 -0 -0 -0 -0 -0 -0
-0 -0 -0 -0 -0 -0 -0 -0 -0 -0 -0 -0 -0 -0 -0 -0 -0 -0 -0 -0 -0 -0 -36 -33 -30 -20 -18 -28 -23 -36 -42 -98 -72 -17 -8 -80 -0 -0 -0 -0 -0 -0 -0 -0 -0 -0 -0 -0 -0 -0 -0 -0 -0 -0
-0 -0 -0 -0 -0 -0 -0 -0 -0 -0 -0 -0 -0 -0 -0 -0 -0 -0 -0 -5 -42 -36 -40 -62 -54 -72 -63 -57 -69 -0 -0 -0 -8 -0 -0 -0 -0 -0 -0 -0 -0 -0 -0 -0 -0 -0 -0 -0 -0 -0 -0 -0 -0 -0
-0 -0 -0 -0 -0 -0 -0 -0 -0 -0 -0 -0 -0 -0 -0 -0 -4 -2 -0 -23 -5 -0 -0 -0 -40 -0 -0 -65 -0 -0 -0 -0 -0 -0 -0 -0 -0 -0 -0 -0 -0 -0 -0 -0 -0 -0 -0 -0 -0 -0 -0 -0 -0 -0
-19 -65 -0 -0 -0 -0 -0 -0 -0 -0 -0 -0 -0 -0 -0 -12 -3 -12 -0 -0 -27 -40 -0 -0 -0 -0 -0 -0 -0 -0 -0 -0 -0 -0 -0 -0 -0 -0 -0 -0 -0 -0 -0 -0 -0 -0 -0 -0 -0 -0 -0 -0 -0 -0
-0 -8 -39 -117 -0 -0 -59 -2 -8 -0 -4 -65 -0 -0 -0 -4 -3 -4 -0 -0 -0 -0 -0 -0 -0 -0 -0 -0 -0 -0 -0 -0 -0 -0 -0 -0 -0 -0 -0 -0 -0 -0 -0 -0 -0 -0 -0 -0 -0 -0 -0 -0 -0 -0
-99 -78 -7 -20 -51 -53 -0 -0 -0 -0 -0 -0 -0 -0 -0 -14 -36 -4 -0 -0 -0 -0 -0 -0 -0 -0 -0 -0 -0 -0 -0 -0 -0 -0 -0 -0 -0 -0 -0 -0 -0 -0 -0 -0 -0 -0 -0 -0 -0 -0 -0 -0 -0 -0
-39 -84 -16 -15 -14 -19 -1 -0 -0 -0 -0 -0 -0 -0 -0 -0 -0 -0 -0 -0 -0 -0 -0 -0 -0 -0 -0 -0 -0 -0 -0 -0 -0 -0 -0 -0 -0 -0 -0 -0 -0 -0 -0 -0 -0 -0 -0 -0 -0 -0 -0 -0 -0 -0
-0 -0 -28 -28 -0 -39 -46 -55 -0 -0 -0 -0 -0 -0 -0 -0 -0 -0 -0 -0 -0 -0 -0 -0 -0 -0 -0 -0 -0 -0 -0 -0 -0 -0 -0 -0 -0 -0 -0 -0 -0 -0 -0 -0 -0 -0 -0 -0 -0 -0 -0 -0 -0 -0
-5 -0 -0 -61 -0 -70 -88 -36 -23 -5 -2 -6 -30 -26 -19 -2 -1 -0 -0 -0 -0 -0 -0 -0 -0 -0 -0 -0 -0 -0 -0 -0 -0 -0 -0 -0 -0 -0 -0 -0 -0 -0 -0 -0 -0 -0 -0 -0 -0 -0 -0 -0 -0 -0
-111 -8 -48 -55 -49 -34 -43 -13 -23 -25 -44 -12 -8 -2 -1 -0 -0 -3 -27 -0 -0 -0 -0 -0 -0 -0 -0 -0 -0 -0 -0 -0 -0 -0 -0 -0 -0 -0 -0 -0 -0 -0 -0 -0 -0 -0 -0 -0 -0 -0 -0 -0 -0 -0
Wind_Speed
26 24 22 19 19 21 27 27 26 27 30 32 32 30 28 29 28 24 27 27 26 30 37 37 35 31 29 27 27 26 24 22 21 25 27 27 27 25 29 36 26 21 21 20 20 24 24 21 18 23 15 5 5 5
19 18 19 16 17 18 18 21 25 28 30 31 30 29 29 29 27 23 26 22 26 31 31 32 38 40 40 38 29 23 24 24 20 22 24 24 27 23 24 30 28 25 20 22 19 15 16 15 4 3 3 1 5 6
18 14 13 14 14 13 9 10 22 27 28 30 28 27 26 25 26 23 26 26 26 29 34 32 27 23 28 36 30 26 23 21 20 20 23 23 26 23 27 27 21 29 26 15 14 9 8 2 2 4 4 7 10 13
13 11 10 9 8 9 12 7 12 28 28 26 25 25 25 25 26 24 25 22 23 24 25 23 21 23 23 20 24 28 28 24 23 20 20 22 27 23 23 21 22 22 18 21 13 13 7 5 6 6 7 10 13 15
16 10 7 5 5 8 5 2 13 26 25 24 24 24 23 23 24 24 27 27 27 22 21 25 27 21 23 23 24 25 25 25 23 22 19 22 21 22 19 19 20 21 22 20 22 17 12 15 14 13 14 17 17 20
29 7 5 1 4 8 6 11 18 22 23 22 22 22 22 22 21 19 18 15 21 22 19 21 19 19 18 17 20 22 22 22 21 21 19 17 18 17 17 18 20 18 8 4 8 7 1 3 7 11 13 14 18 16
31 11 5 5 7 10 13 17 19 20 21 21 21 21 20 21 20 20 19 17 21 19 18 19 19 17 17 16 17 17 16 18 19 20 20 18 16 13 14 15 11 4 2 1 1 2 6 8 10 12 13 14 16 18
26 17 9 12 3 16 18 18 19 19 19 19 20 20 20 20 21 21 20 24 22 19 18 20 20 17 14 15 15 13 14 16 17 16 15 15 15 11 10 10 7 5 7 6 5 5 5 8 12 16 18 21 23 25
25 20 15 11 18 17 17 16 17 18 18 18 19 19 17 16 17 18 17 14 16 18 20 18 19 17 15 16 14 13 14 13 12 12 13 14 16 15 12 10 7 7 6 6 7 10 14 17 21 24 26 28 30 31
22 18 15 16 15 16 14 15 15 14 15 16 15 15 16 17 17 17 16 17 19 19 19 20 17 18 15 14 13 12 12 10 14 11 8 11 10 9 8 8 9 10 12 13 15 19 21 23 25 28 29 31 31 33
14 12 13 15 16 17 15 15 15 14 14 14 15 16 16 15 14 15 17 18 17 20 20 21 19 17 14 14 13 12 11 12 14 14 12 14 13 12 11 10 12 13 15 16 17 19 21 23 26 28 28 26 27 29
11 11 10 15 20 15 15 15 14 13 14 15 15 15 14 13 14 15 17 18 19 18 19 19 17 17 15 14 14 16 12 13 13 13 11 13 12 13 12 12 14 16 17 19 20 21 23 24 25 24 25 26 27 27
4 6 7 9 16 17 18 19 15 10 13 15 13 13 12 14 13 15 14 14 16 16 17 18 16 15 14 12 13 13 15 16 12 14 13 12 12 12 13 14 15 16 18 19 21 22 23 23 23 25 27 28 28 26
9 5 6 10 13 16 17 14 11 12 14 14 13 12 12 13 12 13 13 12 13 15 14 16 14 13 13 13 14 14 13 14 15 15 14 11 12 12 12 13 13 15 17 19 20 20 21 23 26 26 27 26 27 27
6 5 5 5 12 16 15 12 13 12 14 14 12 11 12 12 12 11 14 11 11 14 13 13 14 14 13 13 14 15 15 12 13 12 10 12 13 13 13 14 16 18 19 20 21 22 24 25 26 26 26 25 24 24
14 12 8 9 13 13 12 10 11 14 14 12 11 13 11 9 7 4 9 9 9 11 12 10 12 13 14 14 14 14 14 14 13 13 14 14 15 15 16 17 18 19 20 21 22 23 24 26 27 27 26 23 23 22
15 15 11 11 10 10 10 11 13 13 11 12 12 13 11 12 10 8 8 10 11 10 11 13 12 13 15 14 14 12 12 11 12 13 15 15 15 16 17 18 19 21 23 24 25 25 25 25 25 25 26 23 23 21
19 15 11 7 6 9 10 10 11 12 11 13 11 12 12 12 10 9 8 9 10 11 12 11 13 10 12 13 12 10 11 14 15 16 16 15 15 16 17 19 21 23 24 26 26 24 23 25 27 25 23 23 23 22
18 12 7 5 6 12 12 11 10 10 13 11 10 10 13 12 11 11 11 11 11 12 14 11 9 9 8 9 11 14 16 16 17 17 17 16 17 18 20 21 22 23 25 26 26 25 25 26 26 24 22 22 24 24
10 8 7 7 9 14 13 13 12 11 10 10 9 10 12 12 12 11 12 12 11 11 11 11 10 11 12 13 14 15 16 17 17 17 16 17 18 21 22 22 24 25 26 24 24 25 26 26 24 22 23 23 24 25
11 10 8 9 12 13 14 12 12 12 12 12 11 10 12 11 10 11 11 12 10 11 12 12 11 13 15 16 17 18 18 18 18 18 18 19 21 22 23 25 25 24 24 25 27 25 24 21 21 22 21 22 23 24
11 7 10 11 13 12 14 12 12 12 13 12 12 11 12 12 11 11 13 12 13 13 13 15 16 17 18 18 18 18 18 18 18 19 20 21 21 22 24 24 22 21 22 24 24 23 23 25 24 25 26 27 27 27
10 11 13 13 15 15 15 10 14 12 14 12 12 14 13 12 12 12 13 13 14 14 14 13 13 13 14 14 12 12 13 16 18 20 20 20 20 20 19 20 21 21 23 25 26 26 26 27 27 27 27 28 28 29
14 17 17 17 16 17 14 16 15 16 16 16 16 17 16 15 12 15 15 14 13 10 8 7 6 6 8 9 10 12 13 14 18 18 18 16 14 16 19 21 22 24 25 27 29 30 30 29 30 31 32 32 33 33
17 18 19 19 19 20 20 20 21 21 23 23 22 22 22 20 19 17 16 15 13 11 11 10 10 12 12 11 11 13 13 18 17 18 20 17 15 18 22 24 26 27 29 32 34 34 34 33 33 33 34 34 35 35
18 19 21 19 18 19 20 20 22 23 22 19 18 18 18 17 16 13 12 14 14 13 12 12 11 6 10 12 18 21 22 21 19 20 19 18 18 20 24 27 30 30 30 32 34 34 31 31 31 32 32 30 30 28
18 20 19 17 17 16 17 17 18 18 17 18 19 19 17 17 16 15 13 14 15 16 17 18 18 7 16 22 23 24 23 23 23 20 19 19 19 19 22 24 27 28 30 32 32 28 29 30 30 30 29 28 28 28
15 15 17 20 20 19 19 18 18 17 16 18 21 17 18 20 20 16 14 13 19 22 23 22 23 23 24 25 26 27 27 27 26 23 21 23 22 23 24 25 28 32 32 32 28 29 30 31 30 30 31 31 29 27
13 13 16 16 16 17 17 18 18 17 18 19 21 23 23 20 17 21 24 24 24 24 23 23 24 24 27 28 28 29 30 30 29 28 26 26 27 25 26 28 31 32 32 27 28 30 30 30 31 31 31 31 29 26
12 8 12 15 16 15 14 15 18 21 24 23 23 24 24 24 23 20 21 22 24 25 25 25 25 28 30 31 33 33 33 30 29 28 30 30 29 28 29 32 33 33 31 31 32 31 32 32 33 33 33 34 35 34
11 11 10 12 14 14 13 11 15 16 18 19 20 20 20 21 24 25 24 22 22 23 27 29 30 31 33 35 35 35 33 32 32 32 33 32 30 33 34 33 32 30 30 30 31 32 33 34 35 36 36 37 37 37
16 20 16 14 14 10 10 15 15 13 12 13 15 15 16 17 15 22 25 26 27 27 28 30 33 34 34 33 33 34 32 32 36 36 36 36 35 32 31 30 29 30 31 31 32 34 35 35 36 37 37 37 38 37
20 22 21 18 16 15 15 16 15 16 19 13 16 19 18 18 16 15 23 28 27 26 29 31 32 32 34 35 36 35 35 34 35 37 36 34 32 31 31 31 31 32 33 34 35 36 37 37 37 37 38 38 38 37
Wind_Direction
325 325 327 325 328 328 328 323 320 312 303 294 292 289 292 286 282 287 282 270 272 267 261 257 263 264 262 260 253 265 262 265 261 253 251 250 255 259 249 243 256 269 261 265 259 242 243 278 259 254 259 285 308 328
332 327 331 330 332 332 333 335 323 312 300 288 284 281 278 276 277 282 274 272 272 260 258 265 262 260 250 245 257 261 259 264 270 257 257 261 255 268 259 244 246 248 265 249 259 244 256 259 241 257 285 336 332 357
335 328 329 332 337 340 330 344 332 309 293 275 273 273 279 278 273 277 271 269 268 264 264 259 257 271 258 243 247 248 258 267 269 270 260 260 254 266 254 253 256 245 251 259 250 255 253 290 3 332 339 345 336 334
329 327 331 339 340 348 350 349 352 291 276 271 274 269 270 270 266 272 266 268 264 260 259 255 270 264 266 260 248 248 257 271 268 272 262 254 258 269 262 261 254 258 244 242 236 235 245 311 308 314 330 334 329 330
340 336 337 345 355 3 18 83 231 264 260 261 262 260 268 271 271 271 258 252 241 252 255 251 264 262 262 255 254 255 260 257 257 253 260 246 270 266 263 265 264 270 248 243 247 243 255 271 285 302 312 318 319 322
334 344 355 4 183 196 141 187 226 246 244 249 248 254 266 267 272 265 253 260 234 242 258 245 262 264 265 260 260 253 255 256 260 255 258 269 279 269 255 260 283 275 267 238 226 240 284 324 344 3 16 346 352 341
330 1 24 152 157 182 200 211 235 240 237 236 238 247 258 255 259 243 241 241 238 259 252 249 249 260 257 258 262 259 262 261 262 258 254 265 265 279 255 244 274 309 42 210 186 259 303 305 309 335 344 340 343 340
342 358 36 175 302 214 226 214 241 236 234 242 241 246 248 252 250 235 235 226 239 247 254 246 243 256 261 257 256 265 263 264 257 256 251 250 254 272 261 273 278 6 43 30 9 1 325 323 317 330 335 334 324 323
330 337 4 10 274 245 260 281 253 233 241 244 242 244 253 234 228 230 241 252 243 249 233 242 238 239 264 260 262 265 266 257 260 253 250 248 255 256 253 268 302 325 330 351 346 340 330 313 312 318 321 318 315 315
323 313 253 229 233 199 256 248 235 248 240 237 235 229 223 222 239 237 238 232 230 232 236 227 240 234 250 257 251 253 260 255 231 250 263 244 242 256 278 300 314 323 326 315 308 310 311 309 312 313 312 312 313 312
287 270 202 174 156 140 188 206 213 223 226 216 220 216 222 233 226 226 221 223 230 227 228 222 229 234 249 246 247 254 255 252 235 239 241 243 239 261 283 301 313 325 331 332 328 322 322 321 315 315 320 324 326 324
253 249 247 174 112 182 185 192 197 211 212 201 212 209 210 220 222 218 214 218 220 227 223 223 232 234 243 254 244 241 251 247 236 242 247 242 248 269 290 302 310 318 323 324 325 324 324 324 327 330 330 329 328 326
246 267 252 221 168 172 170 169 173 199 208 197 204 210 216 212 208 207 211 220 225 234 227 230 230 240 247 263 243 241 242 238 244 247 252 256 267 280 287 301 310 317 320 322 323 325 327 331 334 333 327 323 321 324
153 189 207 188 181 173 174 180 191 192 193 196 199 200 206 201 205 207 220 227 239 231 233 229 236 243 252 248 244 239 239 236 243 250 248 265 278 291 305 318 324 324 328 331 336 338 335 332 327 325 324 326 327 327
163 180 197 203 183 179 184 186 189 188 191 191 201 200 192 201 200 187 203 233 233 218 237 236 239 246 247 247 250 240 236 248 250 244 255 264 272 278 282 295 303 309 314 319 322 323 326 330 331 331 333 333 334 336
146 147 152 170 171 179 196 207 194 180 187 192 199 192 207 199 204 223 236 254 261 242 235 247 237 238 238 242 241 244 243 249 245 249 255 266 275 281 287 291 298 309 318 324 327 328 328 330 332 332 333 341 344 347
142 143 155 160 175 187 217 204 176 175 192 192 192 195 199 193 204 213 226 243 261 245 232 231 239 242 238 239 242 263 251 250 259 268 274 278 279 283 289 295 303 311 317 321 321 322 325 333 340 345 341 339 336 343
136 148 158 181 210 201 183 178 175 171 175 172 180 199 210 207 219 220 247 274 254 247 235 235 235 252 251 244 243 262 273 264 270 277 278 287 299 306 309 307 310 313 319 323 329 331 333 327 319 322 332 332 330 338
141 160 184 216 210 173 180 189 190 191 176 197 202 216 209 216 218 225 240 267 242 219 213 233 256 257 261 262 267 268 272 278 278 282 279 286 296 301 303 308 313 319 322 325 321 312 310 311 316 321 332 338 330 328
152 181 207 209 184 166 167 175 200 214 239 218 223 245 231 236 247 254 280 287 257 238 237 241 242 243 251 258 267 272 269 274 280 281 282 289 297 301 303 307 311 315 315 313 309 308 313 319 337 340 340 335 333 328
148 150 180 167 157 154 157 172 177 196 211 225 245 241 214 232 247 262 267 273 262 248 239 246 269 264 271 276 274 275 270 272 276 284 281 284 292 302 305 317 316 318 321 323 319 315 330 347 347 345 345 340 332 323
150 185 163 155 149 162 159 177 175 189 185 198 215 235 227 235 242 250 248 238 239 246 252 265 271 272 271 266 258 267 260 256 271 282 277 277 299 306 307 314 320 329 332 330 331 332 335 333 332 329 325 319 322 324
140 134 130 132 129 126 129 158 148 161 161 178 189 175 182 196 224 245 222 225 224 226 231 233 228 233 235 253 262 281 304 319 303 291 286 278 317 339 358 348 344 339 334 334 337 335 331 330 331 331 330 329 327 325
123 110 115 116 119 119 132 125 132 134 137 136 140 139 144 151 163 150 162 175 182 208 228 241 251 223 211 218 231 245 250 252 286 301 311 334 2 350 344 341 340 340 338 333 328 326 329 332 331 326 323 321 320 318
109 112 109 105 106 112 115 117 117 119 119 122 122 126 128 137 136 141 143 155 167 177 187 206 202 180 189 207 251 278 277 353 353 340 336 356 7 350 339 336 335 335 335 331 328 327 325 324 322 321 322 322 321 321
104 107 105 110 114 117 116 119 117 116 122 126 130 136 136 135 138 142 143 159 159 160 169 181 182 226 299 301 341 352 359 20 23 7 6 10 3 350 339 331 329 331 336 333 330 328 331 330 330 330 331 333 335 335
100 98 103 116 116 127 129 131 128 130 129 124 128 130 136 135 137 143 156 144 145 142 129 123 110 252 347 26 22 13 15 13 11 10 13 7 4 1 352 345 341 340 339 336 337 339 337 336 337 337 337 336 338 337
115 108 105 106 109 116 116 125 127 129 133 128 121 132 131 129 128 136 141 150 121 89 79 63 47 40 33 27 20 10 5 3 4 6 6 357 354 351 348 345 340 336 337 337 340 338 336 336 335 334 332 331 332 335
117 109 115 114 124 121 117 114 113 121 130 133 121 119 123 130 130 115 90 74 62 54 53 46 43 40 28 23 18 12 5 3 0 358 356 352 348 348 349 345 342 341 342 344 342 341 340 340 338 335 332 332 333 332
124 137 130 122 121 122 128 122 106 100 98 105 107 99 90 75 73 84 75 64 50 46 45 38 32 22 13 9 5 3 4 6 5 359 352 348 347 349 345 341 339 339 341 339 338 338 338 338 337 335 334 332 329 328
118 98 133 132 127 122 117 132 99 102 91 89 91 78 68 68 45 15 24 41 40 34 23 16 12 14 7 1 360 358 359 358 355 353 350 348 346 342 341 342 344 345 346 345 343 341 338 336 335 333 332 331 330 328
72 39 71 124 116 135 116 90 82 83 82 81 77 66 40 28 21 16 359 11 21 17 18 11 4 1 3 3 3 0 0 357 351 349 348 347 346 347 347 348 350 349 348 346 344 341 339 337 336 335 333 332 331 330
73 85 73 62 61 70 71 60 60 49 23 20 354 355 7 15 24 6 344 7 12 15 10 8 7 7 3 1 359 358 357 356 355 354 353 355 357 356 353 352 352 350 348 345 344 342 340 339 338 337 335 334 333 333